Vertical_Velocity
0 -0 -1 -1 -1 -2 -1 -1 -1 -0 -1 0 -1 -1 -1 -2 -0 -1 0 -0 -1 -0
-1 1 0 -1 -2 0 -1 -1 -2 -1 -1 0 -1 -2 -0 -1 1 -0 1 0 1 0
-0 1 -0 0 -1 1 -1 -0 -2 -1 -1 -1 -2 -2 -1 -4 -1 0 -1 -1 -1 -2
0 -1 -0 1 2 2 -1 1 0 -0 0 -0 -1 -2 1 -2 -2 -1 -3 -2 -1 -1
-1 -0 0 1 -1 0 -1 -1 -1 -1 -1 -1 -3 -2 -1 -2 1 0 -0 -0 1 -1
1 2 1 0 0 0 -0 -0 -1 -2 -3 -4 -4 -2 -3 -1 -0 1 0 -2 0 -2
-1 -1 -0 -0 -2 -2 -2 -1 -2 -2 -2 -2 -1 -0 -2 -0 -0 0 -1 -0 -1 -0
-0 0 0 1 1 1 2 1 -1 -1 -0 0 1 -2 -1 -0 1 1 -0 -1 -2 -1
0 1 1 -0 0 1 0 -0 -0 1 2 0 -0 -1 1 -4 1 -0 -1 -0 -1 -3
1 -0 1 1 1 1 -0 -1 -1 -0 2 3 -1 -1 -1 -2 2 -1 -2 -1 -3 -1
1 1 1 -1 -3 -2 -1 -1 -0 -1 -1 3 -3 -2 -1 -3 2 3 -2 -5 -2 -0
2 0 -1 -1 -1 -1 -0 -1 -1 -3 -2 0 -1 -3 -2 -4 -4 -1 -3 -0 -2 -2
-1 -2 -1 -1 -2 -0 -1 -2 -0 -1 -0 2 1 -3 1 -3 -0 -1 -3 0 -3 -1
-3 1 -0 -0 -2 -1 -2 -0 1 3 2 -0 1 -2 -1 -3 0 -1 -4 -1 -2 -1
Height
5774 5770 5767 5762 5759 5756 5754 5751 5748 5745 5742 5739 5735 5732 5729 5725 5721 5717 5713 5709 5706 5701
5763 5759 5756 5752 5749 5746 5744 5740 5737 5734 5731 5728 5724 5721 5718 5713 5709 5705 5701 5697 5693 5689
5751 5748 5744 5741 5739 5735 5733 5730 5727 5723 5720 5717 5713 5709 5706 5701 5697 5693 5689 5684 5679 5674
5739 5736 5733 5730 5727 5724 5721 5718 5715 5711 5708 5705 5700 5697 5693 5688 5683 5679 5674 5668 5662 5656
5726 5723 5720 5717 5714 5711 5709 5705 5702 5699 5695 5691 5688 5683 5678 5673 5667 5662 5656 5650 5644 5639
5715 5712 5709 5705 5702 5699 5696 5692 5689 5685 5681 5677 5673 5667 5662 5656 5651 5645 5639 5634 5629 5623
5703 5700 5696 5693 5690 5686 5682 5679 5675 5670 5666 5661 5656 5650 5645 5641 5635 5629 5623 5618 5613 5606
5689 5686 5682 5679 5675 5671 5667 5662 5659 5655 5650 5646 5641 5635 5630 5624 5619 5613 5608 5602 5596 5590
5675 5671 5668 5663 5659 5656 5651 5648 5644 5640 5635 5629 5624 5618 5613 5606 5602 5596 5590 5585 5579 5573
5660 5656 5652 5648 5645 5641 5637 5633 5629 5624 5619 5613 5607 5602 5596 5590 5586 5579 5574 5568 5563 5557
5644 5641 5637 5633 5630 5626 5621 5617 5612 5607 5602 5597 5590 5585 5580 5575 5570 5564 5557 5552 5547 5542
5630 5626 5622 5617 5614 5609 5605 5600 5596 5591 5586 5581 5575 5570 5565 5560 5555 5549 5542 5537 5532 5526
5616 5612 5608 5603 5598 5593 5589 5584 5580 5574 5570 5566 5560 5553 5549 5544 5539 5533 5527 5522 5517 5511
5600 5596 5592 5586 5582 5578 5572 5567 5563 5558 5553 5549 5544 5538 5533 5527 5522 5517 5512 5507 5501 5496